Find Starlink 31770

NORAD ID: 59601 Int'l Des: 2024-080 Owner: SPXS Country: US Constellation: starlink operational
LEOCIRCULAR

Live-Position

3D-Globus wird geladen...

Über Starlink 31770

Beschreibung wird geladen...

Nächste Überflüge

Passes for default location (London). Set your location on the main map for personalized predictions.

Höhenverlauf

Loading altitude history...

Zweizeiliger Elementsatz

1 59601U 24080A 26127.17319544 -.00000748 00000-0 -17655-4 0 9996
2 59601 43.0017 67.9074 0001255 246.9891 113.0828 15.27574116114685
Epoch: 7. Mai 2026 • Age: 5 hours

Aktueller Status

Höhe 482.1 km
Geschwindigkeit 7.63 km/s
Subsatellitenpunkt 13.92°N, 137.32°W
Startdatum 28. Apr. 2024
Alter 2 years
Typ internet

Technische Details

Klassifizierung Payload
Masse 730.00 kg
Trockenmasse 700.00 kg
Gesamtmasse 730.00 kg
Länge 0.30 m
Durchmesser 4.10 m
Spannweite 29.00 m
Form Box + pan
Hersteller SPXS
Bus-Typ Starlink V2M
Phasenstatus In Orbit
Besitzer/Staat SPXS/US

Most Searched